Palmer, AK

11:23 PM AKDT on March 24, 2017 (GMT -0800)
Palmer Municipal

Weather History for PAAQ - November, 2013

Change the Weather History Date:

Friday, November 29, 2013

  Actual Average Record
Temperature  
Mean Temperature -8 °F -  
Max Temperature 0 °F 26 °F 50 °F (1983)
Min Temperature -16 °F 11 °F -26 °F (1990)
Degree Days  
Heating Degree Days 72    
Moisture  
Dew Point -14 °F    
Average Humidity 79    
Maximum Humidity 87    
Minimum Humidity 68    
Precipitation  
Precipitation 0.00 in - - ()
Snow  
Snow 0.00 in - - ()
Snow Depth 4.00 in    
Sea Level Pressure  
Sea Level Pressure 30.10 in    
Wind  
Wind Speed 4 mph (North)    
Max Wind Speed 12 mph    
Max Gust Speed -    
Visibility 9 miles    
Events Fog    
Averages and records for this station are not official NWS values.
T = Trace of Precipitation, MM = Missing Value Source: NWS Daily Summary

Daily Weather History Graph

Daily Weather History Graph

Search for Another Location

Airport or City:

Trip Planner

Search our weather history database for the weather conditions in past years. The results will help you decide how hot, cold, wet, or windy it might be!

Date:

Astronomy

Nov. 29, 2013 Rise Set
Actual Time 9:42 AM AKST 3:47 PM AKST
Civil Twilight 8:43 AM AKST 4:45 PM AKST
Nautical Twilight 7:45 AM AKST 5:43 PM AKST
Astronomical Twilight 6:52 AM AKST 6:36 PM AKST
Moon 4:57 AM AKST (11/29) 2:32 PM AKST (11/29)
Length of Visible Light 8h 02m
Length of Day
6h 04m
Waning Crescent, 13% of the Moon is Illuminated
Nov 29
Waning Crescent
Dec 2
New
Dec 9
First Quarter
Dec 17
Full
Dec 25
Last Quarter

Hourly Weather History & Observations

Time (AKST) Temp. Windchill Dew Point Humidity Pressure Visibility Wind Dir Wind Speed Gust Speed Precip Events Conditions
12:53 AM -6.0 °F -18.6 °F -11.0 °F 79% 30.02 in 10.0 mi North 5.8 mph - N/A   Clear
1:53 AM -0.0 °F -14.2 °F -6.0 °F 76% 30.03 in 10.0 mi North 8.1 mph - N/A   Clear
2:53 AM -0.0 °F -13.0 °F -6.0 °F 76% 30.04 in 10.0 mi NNW 6.9 mph - N/A   Clear
3:53 AM -2.0 °F -15.4 °F -7.1 °F 79% 30.04 in 10.0 mi North 6.9 mph - N/A   Clear
4:53 AM -2.0 °F -17.7 °F -8.0 °F 76% 30.04 in 10.0 mi North 9.2 mph - N/A   Clear
5:53 AM -2.0 °F -19.6 °F -9.0 °F 72% 30.04 in 10.0 mi NNW 11.5 mph - N/A   Clear
6:53 AM -8.0 °F -16.9 °F -11.9 °F 83% 30.06 in 10.0 mi NNE 3.5 mph - N/A   Clear
7:53 AM -4.0 °F -21.2 °F -11.0 °F 72% 30.06 in 10.0 mi North 10.4 mph - N/A   Clear
8:53 AM -5.1 °F - -11.9 °F 72% 30.06 in 10.0 mi Calm Calm - N/A   Clear
9:53 AM -6.0 °F -14.7 °F -13.0 °F 72% 30.08 in 10.0 mi NNW 3.5 mph - N/A   Partly Cloudy
10:53 AM -9.0 °F - -13.0 °F 83% 30.09 in 10.0 mi Calm Calm - N/A   Clear
11:53 AM -9.0 °F -18.2 °F -13.0 °F 83% 30.11 in 10.0 mi NNE 3.5 mph - N/A   Clear
12:53 PM -2.9 °F -11.2 °F -11.0 °F 68% 30.13 in 10.0 mi Variable 3.5 mph - N/A   Clear
1:53 PM -6.0 °F -14.7 °F -9.0 °F 87% 30.12 in 10.0 mi East 3.5 mph - N/A   Clear
2:53 PM -7.1 °F - -11.0 °F 83% 30.11 in 10.0 mi Calm Calm - N/A   Clear
3:53 PM -9.0 °F - -13.0 °F 83% 30.11 in 10.0 mi Calm Calm - N/A   Clear
4:53 PM -11.0 °F - -15.0 °F 83% 30.13 in 10.0 mi Calm Calm - N/A   Clear
5:53 PM -13.0 °F - -17.0 °F 82% 30.13 in 10.0 mi Calm Calm - N/A   Clear
6:10 PM -11.2 °F - -16.6 °F 77% 30.11 in 10.0 mi Calm Calm - N/A   Scattered Clouds
6:18 PM -13.0 °F - -18.4 °F 77% 30.10 in 10.0 mi Calm Calm - N/A   Mostly Cloudy
6:30 PM -11.2 °F - -16.6 °F 77% 30.10 in 9.0 mi Calm Calm - N/A   Scattered Clouds
6:53 PM -13.0 °F - -18.0 °F 78% 30.14 in 9.0 mi Calm Calm - N/A   Mostly Cloudy
7:09 PM -13.0 °F -22.7 °F -18.4 °F 77% 30.11 in 0.8 mi South 3.5 mph - N/A   Haze
7:53 PM -11.9 °F - -15.0 °F 86% 30.14 in 0.2 mi Calm Calm - N/A Fog Light Freezing Fog
8:53 PM -11.0 °F - -14.1 °F 86% 30.14 in 0.2 mi Calm Calm - N/A Fog Light Freezing Fog
9:37 PM -13.0 °F - -16.6 °F 84% 30.12 in 2.0 mi Calm Calm - N/A   Overcast
9:45 PM -13.0 °F - -16.6 °F 84% 30.12 in 9.0 mi Calm Calm - N/A   Overcast
9:53 PM -11.9 °F - -17.0 °F 78% 30.15 in 9.0 mi Calm Calm - N/A   Overcast
10:22 PM -11.2 °F -20.6 °F -14.8 °F 84% 30.12 in 10.0 mi West 3.5 mph - N/A   Scattered Clouds
10:53 PM -15.0 °F - -20.9 °F 75% 30.17 in 10.0 mi Calm Calm - N/A   Clear
11:53 PM -16.1 °F - -20.0 °F 82% 30.17 in 10.0 mi Calm Calm - N/A   Clear